Year,Month,Day,Hour,Minute,Value (Times are PST for temperature in C)
2012,08,25,00,00,11.80
2012,08,25,00,01,11.80
2012,08,25,00,02,11.80
2012,08,25,00,03,11.70
2012,08,25,00,04,11.70
2012,08,25,00,05,11.70
2012,08,25,00,06,11.60
2012,08,25,00,07,11.60
2012,08,25,00,08,11.60
2012,08,25,00,09,11.60
2012,08,25,00,10,11.60
2012,08,25,00,11,11.60
2012,08,25,00,12,11.60
2012,08,25,00,13,11.60
2012,08,25,00,14,11.60
2012,08,25,00,15,11.60
2012,08,25,00,16,11.60
2012,08,25,00,17,11.60
2012,08,25,00,18,11.60
2012,08,25,00,19,11.60
2012,08,25,00,20,11.60
2012,08,25,00,21,11.60
2012,08,25,00,22,11.60
2012,08,25,00,23,11.60
2012,08,25,00,24,11.60
2012,08,25,00,25,11.60
2012,08,25,00,26,11.60
2012,08,25,00,27,11.50
2012,08,25,00,28,11.40
2012,08,25,00,29,11.40
2012,08,25,00,30,11.40
2012,08,25,00,31,11.40
2012,08,25,00,32,11.40
2012,08,25,00,33,11.40
2012,08,25,00,34,11.30
2012,08,25,00,35,11.30
2012,08,25,00,36,11.30
2012,08,25,00,37,11.30
2012,08,25,00,38,11.20
2012,08,25,00,39,11.20
2012,08,25,00,40,11.20
2012,08,25,00,41,11.20
2012,08,25,00,42,11.20
2012,08,25,00,43,11.20
2012,08,25,00,44,11.10
2012,08,25,00,45,11.10
2012,08,25,00,46,11.10
2012,08,25,00,47,11.10
2012,08,25,00,48,11.10
2012,08,25,00,49,11.10
2012,08,25,00,50,11.10
2012,08,25,00,51,11.10
2012,08,25,00,52,11.10
2012,08,25,00,53,11.10
2012,08,25,00,54,11.00
2012,08,25,00,55,10.90
2012,08,25,00,56,10.90
2012,08,25,00,57,10.90
2012,08,25,00,58,10.90
2012,08,25,00,59,10.90
2012,08,25,01,00,10.90
2012,08,25,01,01,10.90
2012,08,25,01,02,10.90
2012,08,25,01,03,10.90
2012,08,25,01,04,10.90
2012,08,25,01,05,10.90
2012,08,25,01,06,10.90
2012,08,25,01,07,10.90
2012,08,25,01,08,10.90
2012,08,25,01,09,10.90
2012,08,25,01,10,10.90
2012,08,25,01,11,10.90
2012,08,25,01,12,10.90
2012,08,25,01,13,10.90
2012,08,25,01,14,10.90
2012,08,25,01,15,10.90
2012,08,25,01,16,10.90
2012,08,25,01,17,10.80
2012,08,25,01,18,10.80
2012,08,25,01,19,10.80
2012,08,25,01,20,10.80
2012,08,25,01,21,10.80
2012,08,25,01,22,10.80
2012,08,25,01,23,10.80
2012,08,25,01,24,10.80
2012,08,25,01,25,10.70
2012,08,25,01,26,10.70
2012,08,25,01,27,10.70
2012,08,25,01,28,10.70
2012,08,25,01,29,10.70
2012,08,25,01,30,10.70
2012,08,25,01,31,10.70
2012,08,25,01,32,10.70
2012,08,25,01,33,10.70
2012,08,25,01,34,10.60
2012,08,25,01,35,10.60
2012,08,25,01,36,10.60
2012,08,25,01,37,10.60
2012,08,25,01,38,10.60
2012,08,25,01,39,10.60
2012,08,25,01,40,10.60
2012,08,25,01,41,10.60
2012,08,25,01,42,10.50
2012,08,25,01,43,10.40
2012,08,25,01,44,10.40
2012,08,25,01,45,10.40
2012,08,25,01,46,10.40
2012,08,25,01,47,10.40
2012,08,25,01,48,10.40
2012,08,25,01,49,10.50
2012,08,25,01,50,10.60
2012,08,25,01,51,10.50
2012,08,25,01,52,10.50
2012,08,25,01,53,10.40
2012,08,25,01,54,10.40
2012,08,25,01,55,10.40
2012,08,25,01,56,10.40
2012,08,25,01,57,10.40
2012,08,25,01,58,10.40
2012,08,25,01,59,10.40
2012,08,25,02,00,10.40
2012,08,25,02,01,10.40
2012,08,25,02,02,10.40
2012,08,25,02,03,10.40
2012,08,25,02,04,10.40
2012,08,25,02,05,10.40
2012,08,25,02,06,10.40
2012,08,25,02,07,10.40
2012,08,25,02,08,10.40
2012,08,25,02,09,10.40
2012,08,25,02,10,10.30
2012,08,25,02,11,10.30
2012,08,25,02,12,10.30
2012,08,25,02,13,10.30
2012,08,25,02,14,10.30
2012,08,25,02,15,10.20
2012,08,25,02,16,10.20
2012,08,25,02,17,10.20
2012,08,25,02,18,10.20
2012,08,25,02,19,10.20
2012,08,25,02,20,10.20
2012,08,25,02,21,10.20
2012,08,25,02,22,10.20
2012,08,25,02,23,10.20
2012,08,25,02,24,10.20
2012,08,25,02,25,10.20
2012,08,25,02,26,10.20
2012,08,25,02,27,10.10
2012,08,25,02,28,10.10
2012,08,25,02,29,10.10
2012,08,25,02,30,10.10
2012,08,25,02,31,10.10
2012,08,25,02,32,10.10
2012,08,25,02,33,10.10
2012,08,25,02,34,10.20
2012,08,25,02,35,10.20
2012,08,25,02,36,10.20
2012,08,25,02,37,10.20
2012,08,25,02,38,10.10
2012,08,25,02,39,10.10
2012,08,25,02,40,10.10
2012,08,25,02,41,10.10
2012,08,25,02,42,10.10
2012,08,25,02,43,10.10
2012,08,25,02,44,10.10
2012,08,25,02,45,10.10
2012,08,25,02,46,10.10
2012,08,25,02,47,10.10
2012,08,25,02,48,10.10
2012,08,25,02,49,10.10
2012,08,25,02,50,10.10
2012,08,25,02,51,10.10
2012,08,25,02,52,10.10
2012,08,25,02,53,10.10
2012,08,25,02,54,10.10
2012,08,25,02,55,10.00
2012,08,25,02,56,9.90
2012,08,25,02,57,9.90
2012,08,25,02,58,9.90
2012,08,25,02,59,9.90
2012,08,25,03,00,9.90
2012,08,25,03,01,9.90
2012,08,25,03,02,9.90
2012,08,25,03,03,9.90
2012,08,25,03,04,9.90
2012,08,25,03,05,9.80
2012,08,25,03,06,9.80
2012,08,25,03,07,9.80
2012,08,25,03,08,9.80
2012,08,25,03,09,9.80
2012,08,25,03,10,9.80
2012,08,25,03,11,9.80
2012,08,25,03,12,9.80
2012,08,25,03,13,9.80
2012,08,25,03,14,9.80
2012,08,25,03,15,9.80
2012,08,25,03,16,9.80
2012,08,25,03,17,9.80
2012,08,25,03,18,9.80
2012,08,25,03,19,9.80
2012,08,25,03,20,9.80
2012,08,25,03,21,9.70
2012,08,25,03,22,9.70
2012,08,25,03,23,9.70
2012,08,25,03,24,9.70
2012,08,25,03,25,9.70
2012,08,25,03,26,9.70
2012,08,25,03,27,9.70
2012,08,25,03,28,9.70
2012,08,25,03,29,9.80
2012,08,25,03,30,9.80
2012,08,25,03,31,9.80
2012,08,25,03,32,9.80
2012,08,25,03,33,9.80
2012,08,25,03,34,9.80
2012,08,25,03,35,9.80
2012,08,25,03,36,9.80
2012,08,25,03,37,9.80
2012,08,25,03,38,9.90
2012,08,25,03,39,9.90
2012,08,25,03,40,9.90
2012,08,25,03,41,9.90
2012,08,25,03,42,9.90
2012,08,25,03,43,9.90
2012,08,25,03,44,9.90
2012,08,25,03,45,9.90
2012,08,25,03,46,9.90
2012,08,25,03,47,9.90
2012,08,25,03,48,9.90
2012,08,25,03,49,9.90
2012,08,25,03,50,9.90
2012,08,25,03,51,9.90
2012,08,25,03,52,9.90
2012,08,25,03,53,9.90
2012,08,25,03,54,9.90
2012,08,25,03,55,9.90
2012,08,25,03,56,9.90
2012,08,25,03,57,9.90
2012,08,25,03,58,9.90
2012,08,25,03,59,9.90
2012,08,25,04,00,9.90
2012,08,25,04,01,9.90
2012,08,25,04,02,9.90
2012,08,25,04,03,9.90
2012,08,25,04,04,10.00
2012,08,25,04,05,10.10
2012,08,25,04,06,10.10
2012,08,25,04,07,10.10
2012,08,25,04,08,10.10
2012,08,25,04,09,10.10
2012,08,25,04,10,10.00
2012,08,25,04,11,10.00
2012,08,25,04,12,10.00
2012,08,25,04,13,10.10
2012,08,25,04,14,10.10
2012,08,25,04,15,10.10
2012,08,25,04,16,10.10
2012,08,25,04,17,10.00
2012,08,25,04,18,9.90
2012,08,25,04,19,9.90
2012,08,25,04,20,9.90
2012,08,25,04,21,9.90
2012,08,25,04,22,9.90
2012,08,25,04,23,9.90
2012,08,25,04,24,9.90
2012,08,25,04,25,9.90
2012,08,25,04,26,9.90
2012,08,25,04,27,9.90
2012,08,25,04,28,9.90
2012,08,25,04,29,9.90
2012,08,25,04,30,9.90
2012,08,25,04,31,9.90
2012,08,25,04,32,9.90
2012,08,25,04,33,9.90
2012,08,25,04,34,9.90
2012,08,25,04,35,9.90
2012,08,25,04,36,9.90
2012,08,25,04,37,9.90
2012,08,25,04,38,9.80
2012,08,25,04,39,9.80
2012,08,25,04,40,9.80
2012,08,25,04,41,9.80
2012,08,25,04,42,9.80
2012,08,25,04,43,9.70
2012,08,25,04,44,9.70
2012,08,25,04,45,9.70
2012,08,25,04,46,9.70
2012,08,25,04,47,9.70
2012,08,25,04,48,9.70
2012,08,25,04,49,9.70
2012,08,25,04,50,9.70
2012,08,25,04,51,9.70
2012,08,25,04,52,9.70
2012,08,25,04,53,9.70
2012,08,25,04,54,9.70
2012,08,25,04,55,9.70
2012,08,25,04,56,9.70
2012,08,25,04,57,9.70
2012,08,25,04,58,9.70
2012,08,25,04,59,9.70
2012,08,25,05,00,9.70
2012,08,25,05,01,9.70
2012,08,25,05,02,9.70
2012,08,25,05,03,9.70
2012,08,25,05,04,9.70
2012,08,25,05,05,9.70
2012,08,25,05,06,9.70
2012,08,25,05,07,9.70
2012,08,25,05,08,9.70
2012,08,25,05,09,9.70
2012,08,25,05,10,9.70
2012,08,25,05,11,9.70
2012,08,25,05,12,9.70
2012,08,25,05,13,9.70
2012,08,25,05,14,9.70
2012,08,25,05,15,9.70
2012,08,25,05,16,9.70
2012,08,25,05,17,9.70
2012,08,25,05,18,9.70
2012,08,25,05,19,9.70
2012,08,25,05,20,9.70
2012,08,25,05,21,9.70
2012,08,25,05,22,9.70
2012,08,25,05,23,9.70
2012,08,25,05,24,9.70
2012,08,25,05,25,9.70
2012,08,25,05,26,9.70
2012,08,25,05,27,9.70
2012,08,25,05,28,9.70
2012,08,25,05,29,9.70
2012,08,25,05,30,9.70
2012,08,25,05,31,9.70
2012,08,25,05,32,9.70
2012,08,25,05,33,9.70
2012,08,25,05,34,9.70
2012,08,25,05,35,9.70
2012,08,25,05,36,9.70
2012,08,25,05,37,9.70
2012,08,25,05,38,9.70
2012,08,25,05,39,9.70
2012,08,25,05,40,9.60
2012,08,25,05,41,9.60
2012,08,25,05,42,9.60
2012,08,25,05,43,9.60
2012,08,25,05,44,9.60
2012,08,25,05,45,9.60
2012,08,25,05,46,9.60
2012,08,25,05,47,9.60
2012,08,25,05,48,9.60
2012,08,25,05,49,9.60
2012,08,25,05,50,9.50
2012,08,25,05,51,9.50
2012,08,25,05,52,9.50
2012,08,25,05,53,9.50
2012,08,25,05,54,9.50
2012,08,25,05,55,9.40
2012,08,25,05,56,9.40
2012,08,25,05,57,9.40
2012,08,25,05,58,9.40
2012,08,25,05,59,9.40
2012,08,25,06,00,9.40
2012,08,25,06,01,9.40
2012,08,25,06,02,9.50
2012,08,25,06,03,9.50
2012,08,25,06,04,9.50
2012,08,25,06,05,9.50
2012,08,25,06,06,9.50
2012,08,25,06,07,9.50
2012,08,25,06,08,9.50
2012,08,25,06,09,9.50
2012,08,25,06,10,9.50
2012,08,25,06,11,9.50
2012,08,25,06,12,9.50
2012,08,25,06,13,9.50
2012,08,25,06,14,9.50
2012,08,25,06,15,9.50
2012,08,25,06,16,9.40
2012,08,25,06,17,9.40
2012,08,25,06,18,9.40
2012,08,25,06,19,9.40
2012,08,25,06,20,9.40
2012,08,25,06,21,9.40
2012,08,25,06,22,9.40
2012,08,25,06,23,9.40
2012,08,25,06,24,9.40
2012,08,25,06,25,9.40
2012,08,25,06,26,9.40
2012,08,25,06,27,9.40
2012,08,25,06,28,9.30
2012,08,25,06,29,9.30
2012,08,25,06,30,9.30
2012,08,25,06,31,9.30
2012,08,25,06,32,9.30
2012,08,25,06,33,9.30
2012,08,25,06,34,9.30
2012,08,25,06,35,9.30
2012,08,25,06,36,9.30
2012,08,25,06,37,9.30
2012,08,25,06,38,9.30
2012,08,25,06,39,9.30
2012,08,25,06,40,9.30
2012,08,25,06,41,9.30
2012,08,25,06,42,9.20
2012,08,25,06,43,9.20
2012,08,25,06,44,9.20
2012,08,25,06,45,9.20
2012,08,25,06,46,9.30
2012,08,25,06,47,9.30
2012,08,25,06,48,9.30
2012,08,25,06,49,9.30
2012,08,25,06,50,9.30
2012,08,25,06,51,9.30
2012,08,25,06,52,9.30
2012,08,25,06,53,9.30
2012,08,25,06,54,9.30
2012,08,25,06,55,9.30
2012,08,25,06,56,9.30
2012,08,25,06,57,9.30
2012,08,25,06,58,9.40
2012,08,25,06,59,9.40
2012,08,25,07,00,9.50
2012,08,25,07,01,9.50
2012,08,25,07,02,9.50
2012,08,25,07,03,9.60
2012,08,25,07,04,9.60
2012,08,25,07,05,9.70
2012,08,25,07,06,9.70
2012,08,25,07,07,9.70
2012,08,25,07,08,9.70
2012,08,25,07,09,9.70
2012,08,25,07,10,9.80
2012,08,25,07,11,9.80
2012,08,25,07,12,9.80
2012,08,25,07,13,9.90
2012,08,25,07,14,9.90
2012,08,25,07,15,9.90
2012,08,25,07,16,10.00
2012,08,25,07,17,10.10
2012,08,25,07,18,10.10
2012,08,25,07,19,10.20
2012,08,25,07,20,10.30
2012,08,25,07,21,10.30
2012,08,25,07,22,10.40
2012,08,25,07,23,10.40
2012,08,25,07,24,10.50
2012,08,25,07,25,10.60
2012,08,25,07,26,10.60
2012,08,25,07,27,10.70
2012,08,25,07,28,10.70
2012,08,25,07,29,10.80
2012,08,25,07,30,10.90
2012,08,25,07,31,10.90
2012,08,25,07,32,10.90
2012,08,25,07,33,11.10
2012,08,25,07,34,11.10
2012,08,25,07,35,11.20
2012,08,25,07,36,11.30
2012,08,25,07,37,11.40
2012,08,25,07,38,11.50
2012,08,25,07,39,11.60
2012,08,25,07,40,11.70
2012,08,25,07,41,11.80
2012,08,25,07,42,11.90
2012,08,25,07,43,12.00
2012,08,25,07,44,12.00
2012,08,25,07,45,12.10
2012,08,25,07,46,12.20
2012,08,25,07,47,12.30
2012,08,25,07,48,12.30
2012,08,25,07,49,12.40
2012,08,25,07,50,12.50
2012,08,25,07,51,12.60
2012,08,25,07,52,12.70
2012,08,25,07,53,12.90
2012,08,25,07,54,13.00
2012,08,25,07,55,13.10
2012,08,25,07,56,13.30
2012,08,25,07,57,13.30
2012,08,25,07,58,13.40
2012,08,25,07,59,13.50
2012,08,25,08,00,13.50
2012,08,25,08,01,13.60
2012,08,25,08,02,13.60
2012,08,25,08,03,13.70
2012,08,25,08,04,13.70
2012,08,25,08,05,13.80
2012,08,25,08,06,13.80
2012,08,25,08,07,13.90
2012,08,25,08,08,14.00
2012,08,25,08,09,14.10
2012,08,25,08,10,14.30
2012,08,25,08,11,14.50
2012,08,25,08,12,14.60
2012,08,25,08,13,14.70
2012,08,25,08,14,14.80
2012,08,25,08,15,14.90
2012,08,25,08,16,15.00
2012,08,25,08,17,15.10
2012,08,25,08,18,15.20
2012,08,25,08,19,15.30
2012,08,25,08,20,15.30
2012,08,25,08,21,15.40
2012,08,25,08,22,15.50
2012,08,25,08,23,15.50
2012,08,25,08,24,15.50
2012,08,25,08,25,15.60
2012,08,25,08,26,15.60
2012,08,25,08,27,15.70
2012,08,25,08,28,15.80
2012,08,25,08,29,15.80
2012,08,25,08,30,15.80
2012,08,25,08,31,15.80
2012,08,25,08,32,15.80
2012,08,25,08,33,15.80
2012,08,25,08,34,15.80
2012,08,25,08,35,15.80
2012,08,25,08,36,15.80
2012,08,25,08,37,15.80
2012,08,25,08,38,15.90
2012,08,25,08,39,15.90
2012,08,25,08,40,16.00
2012,08,25,08,41,16.10
2012,08,25,08,42,16.10
2012,08,25,08,43,16.10
2012,08,25,08,44,16.20
2012,08,25,08,45,16.20
2012,08,25,08,46,16.30
2012,08,25,08,47,16.30
2012,08,25,08,48,16.30
2012,08,25,08,49,16.30
2012,08,25,08,50,16.40
2012,08,25,08,51,16.40
2012,08,25,08,52,16.40
2012,08,25,08,53,16.40
2012,08,25,08,54,16.40
2012,08,25,08,55,16.40
2012,08,25,08,56,16.40
2012,08,25,08,57,16.40
2012,08,25,08,58,16.50
2012,08,25,08,59,16.60
2012,08,25,09,00,16.70
2012,08,25,09,01,16.80
2012,08,25,09,02,16.90
2012,08,25,09,03,17.00
2012,08,25,09,04,17.00
2012,08,25,09,05,17.10
2012,08,25,09,06,17.10
2012,08,25,09,07,17.20
2012,08,25,09,08,17.20
2012,08,25,09,09,17.30
2012,08,25,09,10,17.30
2012,08,25,09,11,17.30
2012,08,25,09,12,17.30
2012,08,25,09,13,17.30
2012,08,25,09,14,17.30
2012,08,25,09,15,17.30
2012,08,25,09,16,17.30
2012,08,25,09,17,17.30
2012,08,25,09,18,17.30
2012,08,25,09,19,17.30
2012,08,25,09,20,17.30
2012,08,25,09,21,17.30
2012,08,25,09,22,17.30
2012,08,25,09,23,17.40
2012,08,25,09,24,17.40
2012,08,25,09,25,17.50
2012,08,25,09,26,17.60
2012,08,25,09,27,17.70
2012,08,25,09,28,17.80
2012,08,25,09,29,17.80
2012,08,25,09,30,17.90
2012,08,25,09,31,17.90
2012,08,25,09,32,18.10
2012,08,25,09,33,18.10
2012,08,25,09,34,18.20
2012,08,25,09,35,18.20
2012,08,25,09,36,18.20
2012,08,25,09,37,18.20
2012,08,25,09,38,18.20
2012,08,25,09,39,18.20
2012,08,25,09,40,18.20
2012,08,25,09,41,18.30
2012,08,25,09,42,18.30
2012,08,25,09,43,18.30
2012,08,25,09,44,18.30
2012,08,25,09,45,18.30
2012,08,25,09,46,18.40
2012,08,25,09,47,18.50
2012,08,25,09,48,18.60
2012,08,25,09,49,18.60
2012,08,25,09,50,18.70
2012,08,25,09,51,18.80
2012,08,25,09,52,18.90
2012,08,25,09,53,18.90
2012,08,25,09,54,19.00
2012,08,25,09,55,19.10
2012,08,25,09,56,19.10
2012,08,25,09,57,19.10
2012,08,25,09,58,19.10
2012,08,25,09,59,19.20
2012,08,25,10,00,19.20
2012,08,25,10,01,19.20
2012,08,25,10,02,19.20
2012,08,25,10,03,19.20
2012,08,25,10,04,19.10
2012,08,25,10,05,19.10
2012,08,25,10,06,19.10
2012,08,25,10,07,19.10
2012,08,25,10,08,19.10
2012,08,25,10,09,19.10
2012,08,25,10,10,19.10
2012,08,25,10,11,19.10
2012,08,25,10,12,19.20
2012,08,25,10,13,19.20
2012,08,25,10,14,19.30
2012,08,25,10,15,19.40
2012,08,25,10,16,19.40
2012,08,25,10,17,19.50
2012,08,25,10,18,19.50
2012,08,25,10,19,19.60
2012,08,25,10,20,19.70
2012,08,25,10,21,19.70
2012,08,25,10,22,19.80
2012,08,25,10,23,19.80
2012,08,25,10,24,19.80
2012,08,25,10,25,19.80
2012,08,25,10,26,19.80
2012,08,25,10,27,19.70
2012,08,25,10,28,19.70
2012,08,25,10,29,19.70
2012,08,25,10,30,19.80
2012,08,25,10,31,19.80
2012,08,25,10,32,19.90
2012,08,25,10,33,19.90
2012,08,25,10,34,19.90
2012,08,25,10,35,19.80
2012,08,25,10,36,19.80
2012,08,25,10,37,19.70
2012,08,25,10,38,19.70
2012,08,25,10,39,19.70
2012,08,25,10,40,19.70
2012,08,25,10,41,19.80
2012,08,25,10,42,19.80
2012,08,25,10,43,19.90
2012,08,25,10,44,19.90
2012,08,25,10,45,20.00
2012,08,25,10,46,20.10
2012,08,25,10,47,20.20
2012,08,25,10,48,20.10
2012,08,25,10,49,20.10
2012,08,25,10,50,20.10
2012,08,25,10,51,20.10
2012,08,25,10,52,20.10
2012,08,25,10,53,20.20
2012,08,25,10,54,20.20
2012,08,25,10,55,20.40
2012,08,25,10,56,20.50
2012,08,25,10,57,20.50
2012,08,25,10,58,20.70
2012,08,25,10,59,20.80
2012,08,25,11,00,20.90
2012,08,25,11,01,21.00
2012,08,25,11,02,21.00
2012,08,25,11,03,21.10
2012,08,25,11,04,21.10
2012,08,25,11,05,21.00
2012,08,25,11,06,21.00
2012,08,25,11,07,20.90
2012,08,25,11,08,20.90
2012,08,25,11,09,20.80
2012,08,25,11,10,20.70
2012,08,25,11,11,20.70
2012,08,25,11,12,20.60
2012,08,25,11,13,20.60
2012,08,25,11,14,20.60
2012,08,25,11,15,20.60
2012,08,25,11,16,20.50
2012,08,25,11,17,20.40
2012,08,25,11,18,20.40
2012,08,25,11,19,20.40
2012,08,25,11,20,20.40
2012,08,25,11,21,20.30
2012,08,25,11,22,20.30
2012,08,25,11,23,20.40
2012,08,25,11,24,20.50
2012,08,25,11,25,20.50
2012,08,25,11,26,20.40
2012,08,25,11,27,20.40
2012,08,25,11,28,20.50
2012,08,25,11,29,20.50
2012,08,25,11,30,20.50
2012,08,25,11,31,20.60
2012,08,25,11,32,20.60
2012,08,25,11,33,20.70
2012,08,25,11,34,20.70
2012,08,25,11,35,20.70
2012,08,25,11,36,20.80
2012,08,25,11,37,20.80
2012,08,25,11,38,20.80
2012,08,25,11,39,20.70
2012,08,25,11,40,20.50
2012,08,25,11,41,20.50
2012,08,25,11,42,20.40
2012,08,25,11,43,20.50
2012,08,25,11,44,20.50
2012,08,25,11,45,20.60
2012,08,25,11,46,20.80
2012,08,25,11,47,20.80
2012,08,25,11,48,20.80
2012,08,25,11,49,20.90
2012,08,25,11,50,20.90
2012,08,25,11,51,20.90
2012,08,25,11,52,20.90
2012,08,25,11,53,20.90
2012,08,25,11,54,21.00
2012,08,25,11,55,21.20
2012,08,25,11,56,21.30
2012,08,25,11,57,21.40
2012,08,25,11,58,21.40
2012,08,25,11,59,21.40
2012,08,25,12,00,21.40
2012,08,25,12,01,21.50
2012,08,25,12,02,21.60
2012,08,25,12,03,21.70
2012,08,25,12,04,21.70
2012,08,25,12,05,21.80
2012,08,25,12,06,21.80
2012,08,25,12,07,21.70
2012,08,25,12,08,21.60
2012,08,25,12,09,21.60
2012,08,25,12,10,21.60
2012,08,25,12,11,21.60
2012,08,25,12,12,21.60
2012,08,25,12,13,21.60
2012,08,25,12,14,21.60
2012,08,25,12,15,21.60
2012,08,25,12,16,21.60
2012,08,25,12,17,21.60
2012,08,25,12,18,21.60
2012,08,25,12,19,21.60
2012,08,25,12,20,21.60
2012,08,25,12,21,21.80
2012,08,25,12,22,21.70
2012,08,25,12,23,21.60
2012,08,25,12,24,21.60
2012,08,25,12,25,21.60
2012,08,25,12,26,21.60
2012,08,25,12,27,21.60
2012,08,25,12,28,21.60
2012,08,25,12,29,21.70
2012,08,25,12,30,21.70
2012,08,25,12,31,21.80
2012,08,25,12,32,21.80
2012,08,25,12,33,21.80
2012,08,25,12,34,21.80
2012,08,25,12,35,22.00
2012,08,25,12,36,22.10
2012,08,25,12,37,22.20
2012,08,25,12,38,22.20
2012,08,25,12,39,22.10
2012,08,25,12,40,22.00
2012,08,25,12,41,22.00
2012,08,25,12,42,21.90
2012,08,25,12,43,21.80
2012,08,25,12,44,21.90
2012,08,25,12,45,21.90
2012,08,25,12,46,22.00
2012,08,25,12,47,22.10
2012,08,25,12,48,22.20
2012,08,25,12,49,22.30
2012,08,25,12,50,22.30
2012,08,25,12,51,22.30
2012,08,25,12,52,22.30
2012,08,25,12,53,22.30
2012,08,25,12,54,22.20
2012,08,25,12,55,22.20
2012,08,25,12,56,22.30
2012,08,25,12,57,22.30
2012,08,25,12,58,22.40
2012,08,25,12,59,22.50
2012,08,25,13,00,22.60
2012,08,25,13,01,22.60
2012,08,25,13,02,22.60
2012,08,25,13,03,22.70
2012,08,25,13,04,22.70
2012,08,25,13,05,22.80
2012,08,25,13,06,22.90
2012,08,25,13,07,22.90
2012,08,25,13,08,23.00
2012,08,25,13,09,23.20
2012,08,25,13,10,23.30
2012,08,25,13,11,23.20
2012,08,25,13,12,23.20
2012,08,25,13,13,23.20
2012,08,25,13,14,23.20
2012,08,25,13,15,23.30
2012,08,25,13,16,23.40
2012,08,25,13,17,23.60
2012,08,25,13,18,23.70
2012,08,25,13,19,23.70
2012,08,25,13,20,23.70
2012,08,25,13,21,23.60
2012,08,25,13,22,23.40
2012,08,25,13,23,23.30
2012,08,25,13,24,23.20
2012,08,25,13,25,23.10
2012,08,25,13,26,23.10
2012,08,25,13,27,23.10
2012,08,25,13,28,23.10
2012,08,25,13,29,23.10
2012,08,25,13,30,23.20
2012,08,25,13,31,23.30
2012,08,25,13,32,23.40
2012,08,25,13,33,23.40
2012,08,25,13,34,23.30
2012,08,25,13,35,23.30
2012,08,25,13,36,23.30
2012,08,25,13,37,23.30
2012,08,25,13,38,23.30
2012,08,25,13,39,23.40
2012,08,25,13,40,23.40
2012,08,25,13,41,23.30
2012,08,25,13,42,23.30
2012,08,25,13,43,23.30
2012,08,25,13,44,23.30
2012,08,25,13,45,23.40
2012,08,25,13,46,23.40
2012,08,25,13,47,23.30
2012,08,25,13,48,23.30
2012,08,25,13,49,23.30
2012,08,25,13,50,23.30
2012,08,25,13,51,23.40
2012,08,25,13,52,23.50
2012,08,25,13,53,23.60
2012,08,25,13,54,23.60
2012,08,25,13,55,23.60
2012,08,25,13,56,23.70
2012,08,25,13,57,23.70
2012,08,25,13,58,23.70
2012,08,25,13,59,23.70
2012,08,25,14,00,23.50
2012,08,25,14,01,23.30
2012,08,25,14,02,23.20
2012,08,25,14,03,23.20
2012,08,25,14,04,23.10
2012,08,25,14,05,23.20
2012,08,25,14,06,23.20
2012,08,25,14,07,23.30
2012,08,25,14,08,23.30
2012,08,25,14,09,23.40
2012,08,25,14,10,23.50
2012,08,25,14,11,23.60
2012,08,25,14,12,23.80
2012,08,25,14,13,23.90
2012,08,25,14,14,24.00
2012,08,25,14,15,24.10
2012,08,25,14,16,24.10
2012,08,25,14,17,24.00
2012,08,25,14,18,23.90
2012,08,25,14,19,23.90
2012,08,25,14,20,23.90
2012,08,25,14,21,23.90
2012,08,25,14,22,23.90
2012,08,25,14,23,23.80
2012,08,25,14,24,23.80
2012,08,25,14,25,23.70
2012,08,25,14,26,23.70
2012,08,25,14,27,23.70
2012,08,25,14,28,23.70
2012,08,25,14,29,23.80
2012,08,25,14,30,23.90
2012,08,25,14,31,24.00
2012,08,25,14,32,24.10
2012,08,25,14,33,24.10
2012,08,25,14,34,24.10
2012,08,25,14,35,24.10
2012,08,25,14,36,24.10
2012,08,25,14,37,24.00
2012,08,25,14,38,24.10
2012,08,25,14,39,24.10
2012,08,25,14,40,24.20
2012,08,25,14,41,24.20
2012,08,25,14,42,24.30
2012,08,25,14,43,24.30
2012,08,25,14,44,24.20
2012,08,25,14,45,24.00
2012,08,25,14,46,23.90
2012,08,25,14,47,23.80
2012,08,25,14,48,23.80
2012,08,25,14,49,23.80
2012,08,25,14,50,23.70
2012,08,25,14,51,23.70
2012,08,25,14,52,23.80
2012,08,25,14,53,23.80
2012,08,25,14,54,23.90
2012,08,25,14,55,24.00
2012,08,25,14,56,24.10
2012,08,25,14,57,24.20
2012,08,25,14,58,24.20
2012,08,25,14,59,24.10
2012,08,25,15,00,24.20
2012,08,25,15,01,24.20
2012,08,25,15,02,24.10
2012,08,25,15,03,24.10
2012,08,25,15,04,24.10
2012,08,25,15,05,24.10
2012,08,25,15,06,24.10
2012,08,25,15,07,24.10
2012,08,25,15,08,24.00
2012,08,25,15,09,24.00
2012,08,25,15,10,24.10
2012,08,25,15,11,24.00
2012,08,25,15,12,23.90
2012,08,25,15,13,23.90
2012,08,25,15,14,23.90
2012,08,25,15,15,23.80
2012,08,25,15,16,23.90
2012,08,25,15,17,24.00
2012,08,25,15,18,24.10
2012,08,25,15,19,24.10
2012,08,25,15,20,24.10
2012,08,25,15,21,24.10
2012,08,25,15,22,24.10
2012,08,25,15,23,24.10
2012,08,25,15,24,24.10
2012,08,25,15,25,24.00
2012,08,25,15,26,23.90
2012,08,25,15,27,23.90
2012,08,25,15,28,23.90
2012,08,25,15,29,24.00
2012,08,25,15,30,24.10
2012,08,25,15,31,24.10
2012,08,25,15,32,24.10
2012,08,25,15,33,24.10
2012,08,25,15,34,24.10
2012,08,25,15,35,24.10
2012,08,25,15,36,24.10
2012,08,25,15,37,24.20
2012,08,25,15,38,24.40
2012,08,25,15,39,24.50
2012,08,25,15,40,24.50
2012,08,25,15,41,24.60
2012,08,25,15,42,24.60
2012,08,25,15,43,24.80
2012,08,25,15,44,24.90
2012,08,25,15,45,25.00
2012,08,25,15,46,24.90
2012,08,25,15,47,25.00
2012,08,25,15,48,25.00
2012,08,25,15,49,25.10
2012,08,25,15,50,25.10
2012,08,25,15,51,25.20
2012,08,25,15,52,25.30
2012,08,25,15,53,25.30
2012,08,25,15,54,25.20
2012,08,25,15,55,25.20
2012,08,25,15,56,25.10
2012,08,25,15,57,25.20
2012,08,25,15,58,25.10
2012,08,25,15,59,25.10
2012,08,25,16,00,25.10
2012,08,25,16,01,25.10
2012,08,25,16,02,25.20
2012,08,25,16,03,25.20
2012,08,25,16,04,25.10
2012,08,25,16,05,25.00
2012,08,25,16,06,24.70
2012,08,25,16,07,24.50
2012,08,25,16,08,24.30
2012,08,25,16,09,24.00
2012,08,25,16,10,23.90
2012,08,25,16,11,23.90
2012,08,25,16,12,23.80
2012,08,25,16,13,23.70
2012,08,25,16,14,23.70
2012,08,25,16,15,23.60
2012,08,25,16,16,23.40
2012,08,25,16,17,23.20
2012,08,25,16,18,22.90
2012,08,25,16,19,22.80
2012,08,25,16,20,22.80
2012,08,25,16,21,22.70
2012,08,25,16,22,22.70
2012,08,25,16,23,22.70
2012,08,25,16,24,22.70
2012,08,25,16,25,22.60
2012,08,25,16,26,22.60
2012,08,25,16,27,22.60
2012,08,25,16,28,22.60
2012,08,25,16,29,22.70
2012,08,25,16,30,22.70
2012,08,25,16,31,22.80
2012,08,25,16,32,22.90
2012,08,25,16,33,23.00
2012,08,25,16,34,23.10
2012,08,25,16,35,23.20
2012,08,25,16,36,23.10
2012,08,25,16,37,22.80
2012,08,25,16,38,22.80
2012,08,25,16,39,22.80
2012,08,25,16,40,22.80
2012,08,25,16,41,23.00
2012,08,25,16,42,23.10
2012,08,25,16,43,23.10
2012,08,25,16,44,23.10
2012,08,25,16,45,23.30
2012,08,25,16,46,23.30
2012,08,25,16,47,23.30
2012,08,25,16,48,23.30
2012,08,25,16,49,23.30
2012,08,25,16,50,23.30
2012,08,25,16,51,23.20
2012,08,25,16,52,23.20
2012,08,25,16,53,23.00
2012,08,25,16,54,22.90
2012,08,25,16,55,22.90
2012,08,25,16,56,22.90
2012,08,25,16,57,22.70
2012,08,25,16,58,22.60
2012,08,25,16,59,22.50
2012,08,25,17,00,22.40
2012,08,25,17,01,22.30
2012,08,25,17,02,22.20
2012,08,25,17,03,22.10
2012,08,25,17,04,22.00
2012,08,25,17,05,22.10
2012,08,25,17,06,22.10
2012,08,25,17,07,22.10
2012,08,25,17,08,22.10
2012,08,25,17,09,22.20
2012,08,25,17,10,22.20
2012,08,25,17,11,22.30
2012,08,25,17,12,22.40
2012,08,25,17,13,22.40
2012,08,25,17,14,22.40
2012,08,25,17,15,22.50
2012,08,25,17,16,22.60
2012,08,25,17,17,22.60
2012,08,25,17,18,22.60
2012,08,25,17,19,22.70
2012,08,25,17,20,22.70
2012,08,25,17,21,22.60
2012,08,25,17,22,22.60
2012,08,25,17,23,22.60
2012,08,25,17,24,22.50
2012,08,25,17,25,22.60
2012,08,25,17,26,22.60
2012,08,25,17,27,22.60
2012,08,25,17,28,22.60
2012,08,25,17,29,22.50
2012,08,25,17,30,22.30